| time (UTC) | temp F | wind direction | speed MPH | gust MPH | rain 1hr in | rain 24hr in | rain mn in | humidity % | barometer mb |
| 20260504081539 | 43 | 209 | 0.0 | 0.0 | 0.00 | 0.00 | 0.00 | 62 | 1010.4 |
| 20260504050008 | 43 | 221 | 0.0 | 0.0 | 0.00 | 0.00 | 0.00 | 61 | 1010.2 |
| 20260504044512 | 43 | 221 | 0.0 | 1.0 | 0.00 | 0.00 | 0.00 | 62 | 1010.1 |
| 20260504043012 | 43 | 221 | 0.0 | 0.0 | 0.00 | 0.00 | 0.00 | 63 | 1010.1 |
| 20260504041507 | 44 | 221 | 0.0 | 0.0 | 0.00 | 0.00 | 0.00 | 60 | 1010.0 |
| 20260504040007 | 45 | 221 | 0.0 | 0.0 | 0.00 | 0.00 | 0.00 | 55 | 1009.8 |
| 20260504034505 | 46 | 221 | 0.0 | 1.0 | 0.00 | 0.00 | 0.00 | 56 | 1009.7 |
| 20260504033004 | 46 | 219 | 0.0 | 3.0 | 0.00 | 0.00 | 0.00 | 55 | 1009.7 |
| 20260504031504 | 46 | 256 | 0.0 | 0.0 | 0.00 | 0.00 | 0.00 | 57 | 1009.9 |
| 20260504030040 | 46 | 256 | 0.0 | 1.0 | 0.00 | 0.00 | 0.00 | 56 | 1009.8 |
| 20260504024532 | 46 | 266 | 0.0 | 2.0 | 0.00 | 0.00 | 0.00 | 57 | 1009.8 |
| 20260504023031 | 46 | 339 | 0.0 | 0.0 | 0.00 | 0.00 | 0.00 | 58 | 1009.9 |
| 20260504021533 | 46 | 339 | 0.0 | 1.0 | 0.00 | 0.00 | 0.00 | 57 | 1009.9 |
| 20260504020029 | 47 | 340 | 0.0 | 0.0 | 0.00 | 0.00 | 0.00 | 54 | 1009.9 |
| 20260504014529 | 47 | 340 | 0.0 | 0.0 | 0.00 | 0.00 | 0.00 | 54 | 1009.8 |
| 20260504013026 | 47 | 340 | 0.0 | 0.0 | 0.00 | 0.00 | 0.00 | 54 | 1009.7 |
| 20260504011526 | 47 | 340 | 0.0 | 0.0 | 0.00 | 0.00 | 0.00 | 56 | 1009.7 |
| 20260504010025 | 48 | 340 | 0.0 | 1.0 | 0.00 | 0.00 | 0.00 | 55 | 1009.6 |
| 20260504004525 | 47 | 340 | 0.0 | 0.0 | 0.00 | 0.00 | 0.00 | 52 | 1009.5 |
| 20260504003022 | 48 | 340 | 0.0 | 0.0 | 0.00 | 0.00 | 0.00 | 50 | 1009.3 |
| 20260504001522 | 49 | 340 | 0.0 | 0.0 | 0.00 | 0.00 | 0.00 | 49 | 1009.2 |
| 20260504000021 | 50 | 340 | 0.0 | 0.0 | 0.00 | 0.00 | 0.00 | 48 | 1009.0 |
| 20260503234532 | 51 | 232 | 0.0 | 1.0 | 0.00 | 0.00 | 0.00 | 47 | 1008.9 |
| 20260503233019 | 52 | 247 | 0.0 | 3.0 | 0.00 | 0.00 | 0.00 | 45 | 1008.8 |
| 20260503231518 | 53 | 259 | 0.0 | 3.0 | 0.00 | 0.00 | 0.00 | 44 | 1008.9 |
| 20260503230018 | 54 | 256 | 0.0 | 8.0 | 0.00 | 0.00 | 0.00 | 41 | 1008.8 |
| 20260503224517 | 55 | 277 | 1.0 | 6.0 | 0.00 | 0.00 | 0.00 | 41 | 1008.8 |
| 20260503223014 | 56 | 256 | 0.0 | 10.0 | 0.00 | 0.00 | 0.00 | 40 | 1008.7 |
| 20260503221514 | 55 | 273 | 0.0 | 4.0 | 0.00 | 0.00 | 0.00 | 39 | 1008.6 |
| 20260503220034 | 55 | 287 | 0.0 | 10.0 | 0.00 | 0.00 | 0.00 | 37 | 1008.5 |
| 20260503214514 | 56 | 271 | 0.0 | 16.0 | 0.00 | 0.00 | 0.00 | 36 | 1008.4 |
| 20260503213012 | 56 | 275 | 3.0 | 11.0 | 0.00 | 0.00 | 0.00 | 35 | 1008.4 |
| 20260503211511 | 57 | 258 | 0.0 | 10.0 | 0.00 | 0.00 | 0.00 | 36 | 1008.2 |
| 20260503210008 | 57 | 217 | 0.0 | 3.0 | 0.00 | 0.00 | 0.00 | 32 | 1008.1 |
| 20260503204509 | 56 | 186 | 0.0 | 2.0 | 0.00 | 0.00 | 0.00 | 37 | 1008.3 |
| 20260503203015 | 56 | 252 | 1.0 | 7.0 | 0.00 | 0.00 | 0.00 | 36 | 1008.1 |
| 20260503201506 | 57 | 246 | 1.0 | 12.0 | 0.00 | 0.00 | 0.00 | 31 | 1008.2 |
| 20260503200004 | 57 | 259 | 0.0 | 8.0 | 0.00 | 0.00 | 0.00 | 34 | 1008.4 |
| 20260503194600 | 55 | 188 | 0.0 | 7.0 | 0.00 | 0.00 | 0.00 | 36 | 1008.5 |
| 20260503193033 | 55 | 46 | 1.0 | 7.0 | 0.00 | 0.00 | 0.00 | 36 | 1008.8 |
| 20260503191527 | 55 | 318 | 2.0 | 11.0 | 0.00 | 0.00 | 0.00 | 33 | 1008.8 |
| 20260503190127 | 55 | 256 | 2.0 | 14.0 | 0.00 | 0.00 | 0.00 | 34 | 1008.9 |
| 20260503184606 | 54 | 247 | 0.0 | 10.0 | 0.00 | 0.00 | 0.00 | 36 | 1009.1 |
| 20260503183107 | 53 | 244 | 0.0 | 8.0 | 0.00 | 0.00 | 0.00 | 39 | 1009.2 |
| 20260503183103 | 53 | 251 | 0.0 | 8.0 | 0.00 | 0.00 | 0.00 | 39 | 1009.2 |
| 20260503181523 | 54 | 219 | 0.0 | 9.0 | 0.00 | 0.00 | 0.00 | 36 | 1009.3 |
| 20260503180022 | 53 | 234 | 0.0 | 8.0 | 0.00 | 0.00 | 0.00 | 34 | 1009.5 |
| 20260503174517 | 53 | 226 | 0.0 | 5.0 | 0.00 | 0.00 | 0.00 | 36 | 1009.5 |
| 20260503173017 | 52 | 202 | 1.0 | 9.0 | 0.00 | 0.00 | 0.00 | 37 | 1009.6 |
| 20260503171513 | 51 | 151 | 1.0 | 7.0 | 0.00 | 0.00 | 0.00 | 47 | 1009.6 |